Regional Weather Roundup
Issued by NWS State College, PA

Home | Current Version | Previous Version | Graphics & Text | Print | Product List | Glossary Off
Versions: 1 2 3 4 5 6 7 8 9 10 11 12 13 14 15 16 17 18 19 20 21 22 23 24 25 26 27 28 29 30 31 32 33 34 35 36 37 38 39 40 41 42 43 44 45 46 47 48 49 50

000
ASUS41 KCTP 061603
RWRCTP

REGIONAL WEATHER ROUNDUP
NATIONAL WEATHER SERVICE STATE COLLEGE PA
1200 PM EDT FRI MAY 06 2016

Note: "fair" indicates few or no clouds below 12,000 feet with no
significant weather and/or obstructions to visibility.

* = STATION THAT DOES NOT REPORT PRECIPITATION /E.G. RAIN...SNOW...ETC/
    THUNDER OR FOG.

PAZ002>004-007>009-013>016-020>023-029>032-061700-
WESTERN PENNSYLVANIA

CITY           SKY/WX    TMP DP  RH WIND       PRES   REMARKS
ERIE           SUNNY     55  42  61 N8        29.90R
MEADVILLE      SUNNY     61  36  39 N16G28    29.86S
FRANKLIN*      MOSUNNY   63  37  39 N8G20     29.84F
NEW CASTLE     FAIR      63  42  46 N15G23    29.85F
BEAVER COUNTY  MOSUNNY   63  43  48 N12G20    29.84F
BUTLER*        SUNNY     63  37  39 N15G23    29.84F
PITTSBURGH INT PTSUNNY   65  38  36 N17G26    29.81F
PITTSBURGH     MOSUNNY   64  37  36 N14G22    29.79F
INDIANA*       CLOUDY    61  37  41 NE13G23   29.80F
LATROBE        MOSUNNY   61  39  44 NE15G21   29.79F
WASHINGTON CO* MOSUNNY   63  39  42 N15G23    29.82F
$$

PAZ004>006-010>012-017>019-024>028-033>037-041-042-045-046-049>053-061700-
CENTRAL PENNSYLVANIA

CITY           SKY/WX    TMP DP  RH WIND       PRES   REMARKS
BRADFORD       PTSUNNY   57  33  40 NE15G23   29.81F
DUBOIS         CLOUDY    58  34  40 N18G24    29.78F
CLEARFIELD     CLOUDY    58  34  40 NE22G32   29.76F
JOHNSTOWN      CLOUDY    54  35  48 N10       29.75S
ALTOONA        CLOUDY    54  40  59 N10       29.74F
STATE COLLEGE  RAIN      54  43  66 N10       29.74S
WILLIAMSPORT   RAIN      56  42  59 N5        29.72S
SELINSGROVE    RAIN      53  47  79 NE7       29.73R
FT INDIANTOWN  RAIN      51  51  99 N7        29.70R FOG
CAPITAL CITY   HVY RAIN  53  49  86 NE5       29.71S FOG
HARRISBURG     RAIN      53  49  86 N6        29.69F FOG
YORK           RAIN      51  49  92 NE5       29.69S FOG
$$

PAZ038>040-043-044-047-048-054-055-060>062-067>071-061700-
EASTERN PENNSYLVANIA

CITY           SKY/WX    TMP DP  RH WIND       PRES   REMARKS
SCRANTON       HVY RAIN  49  47  93 NE8       29.71S FOG
MOUNT POCONO   RAIN      45  44  97 E10       29.71R FOG
ALLENTOWN      LGT RAIN  53  48  83 NE15      29.70F
QUAKERTOWN*    CLOUDY    50  48  93 E8        29.69F
READING        LGT RAIN  53  49  86 NE13G23   29.67F
LANCASTER      LGT RAIN  52  49  89 NE12      29.68F
COATESVILLE    RAIN      50  50 100 MISG      29.68S
POTTSTOWN      LGT RAIN  51  51 100 NE9       29.69F
BLUE BELL      CLOUDY    48  46  93 NE9G17    29.67S
DOYLESTOWN     LGT RAIN  48  48 100 NE9G18    29.67F FOG
WILLOW GROVE   NOT AVBL
NORTH PHILA    HVY RAIN  51  32  48 NE15      29.68F
PHILADELPHIA   LGT RAIN  51  46  83 NE10      29.68R
$$



USA.gov is the U.S. government's official web portal to all federal, state and local government web resources and services.